^^
Your Local Weather - Clay, NY Station Historical Data
Daily Summary for February 22, 2018 Units:  English    Metric   Both
« Previous Day
Next Day »
Daily Weekly Monthly Yearly Custom
  High: Low: Average:
Temperature: 35.1 °F 30.7 °F 33.1 °F
Dew Point: 31.5 °F 28.4 °F 29.9 °F
Humidity: 93% 82% 88%
Wind Speed: 2.0mph 0.0mph 0.2mph
Wind Gust: 4.0mph - -
Wind- - WSW
Pressure: 30.66 in 30.57 in -
Precipitation: 0.17 in    
Historical Graphs
 
 
Tabular Data for February 22, 2018
Time Temperature Dew Point Pressure Wind Wind Speed Wind Gust Humidity Rainfall Rate (Hourly) solar
00:02 33.3 °F 28.4 °F 30.57 in WNW 1.0 mph 2.0 mph 82% 0.00 in 0 W/m2
00:08 33.4 °F 28.5 °F 30.57 in WNW 1.0 mph 2.0 mph 82% 0.00 in 0 W/m2
00:14 33.3 °F 28.4 °F 30.57 in Calm   1.0 mph 82% 0.00 in 0 W/m2
00:20 33.4 °F 28.5 °F 30.57 in Calm   3.0 mph 82% 0.00 in 0 W/m2
00:26 33.4 °F 28.5 °F 30.58 in Calm   3.0 mph 82% 0.00 in 0 W/m2
00:32 33.4 °F 28.5 °F 30.58 in WNW 1.0 mph 1.0 mph 82% 0.00 in 0 W/m2
00:38 33.5 °F 28.6 °F 30.58 in WNW 1.0 mph 1.0 mph 82% 0.00 in 0 W/m2
00:44 33.4 °F 28.5 °F 30.57 in Calm   2.0 mph 82% 0.00 in 0 W/m2
00:50 33.4 °F 28.5 °F 30.58 in WNW 1.0 mph 1.0 mph 82% 0.00 in 0 W/m2
00:56 33.4 °F 28.5 °F 30.58 in WNW 1.0 mph 2.0 mph 82% 0.00 in 0 W/m2
01:02 33.4 °F 28.5 °F 30.58 in WNW 1.0 mph 1.0 mph 82% 0.00 in 0 W/m2
01:08 33.4 °F 28.5 °F 30.59 in Calm   2.0 mph 82% 0.00 in 0 W/m2
01:14 33.4 °F 28.5 °F 30.58 in Calm   1.0 mph 82% 0.00 in 0 W/m2
01:20 33.4 °F 28.5 °F 30.59 in Calm     82% 0.00 in 0 W/m2
01:26 33.4 °F 28.5 °F 30.59 in Calm   1.0 mph 82% 0.00 in 0 W/m2
01:32 33.4 °F 28.5 °F 30.59 in Calm   2.0 mph 82% 0.00 in 0 W/m2
01:38 33.3 °F 28.4 °F 30.59 in WNW 1.0 mph 2.0 mph 82% 0.00 in 0 W/m2
01:44 33.3 °F 28.7 °F 30.59 in Calm   2.0 mph 83% 0.00 in 0 W/m2
01:50 33.4 °F 28.8 °F 30.59 in WNW 1.0 mph 1.0 mph 83% 0.00 in 0 W/m2
01:56 33.3 °F 28.7 °F 30.59 in Calm   1.0 mph 83% 0.00 in 0 W/m2
02:02 33.3 °F 28.7 °F 30.59 in Calm     83% 0.00 in 0 W/m2
02:08 33.3 °F 28.7 °F 30.59 in Calm     83% 0.00 in 0 W/m2
02:14 33.2 °F 28.6 °F 30.59 in Calm     83% 0.00 in 0 W/m2
02:20 33.2 °F 28.6 °F 30.59 in Calm     83% 0.00 in 0 W/m2
02:26 33.2 °F 28.6 °F 30.59 in WNW 1.0 mph 3.0 mph 83% 0.00 in 0 W/m2
02:32 33.2 °F 28.6 °F 30.59 in Calm     83% 0.00 in 0 W/m2
02:38 33.2 °F 28.9 °F 30.59 in Calm     84% 0.00 in 0 W/m2
02:44 33.2 °F 28.6 °F 30.59 in Calm     83% 0.00 in 0 W/m2
02:50 33.2 °F 28.9 °F 30.59 in Calm     84% 0.00 in 0 W/m2
02:56 33.2 °F 28.9 °F 30.59 in Calm     84% 0.00 in 0 W/m2
03:02 33.2 °F 28.9 °F 30.60 in Calm     84% 0.00 in 0 W/m2
03:08 33.2 °F 28.9 °F 30.60 in Calm     84% 0.00 in 0 W/m2
03:14 33.2 °F 28.9 °F 30.59 in Calm     84% 0.00 in 0 W/m2
03:20 33.2 °F 28.9 °F 30.59 in Calm     84% 0.00 in 0 W/m2
03:26 33.2 °F 28.9 °F 30.59 in Calm     84% 0.00 in 0 W/m2
03:32 33.2 °F 29.2 °F 30.59 in Calm     85% 0.00 in 0 W/m2
03:38 33.2 °F 28.9 °F 30.59 in Calm     84% 0.00 in 0 W/m2
03:44 33.2 °F 29.2 °F 30.59 in Calm     85% 0.00 in 0 W/m2
03:50 33.2 °F 29.2 °F 30.59 in Calm     85% 0.00 in 0 W/m2
03:56 33.2 °F 29.2 °F 30.59 in Calm   1.0 mph 85% 0.00 in 0 W/m2
04:02 33.1 °F 29.1 °F 30.59 in Calm     85% 0.00 in 0 W/m2
04:08 33.1 °F 29.1 °F 30.58 in Calm     85% 0.00 in 0 W/m2
04:14 33.1 °F 29.1 °F 30.59 in Calm     85% 0.00 in 0 W/m2
04:20 33.1 °F 29.1 °F 30.59 in Calm     85% 0.00 in 0 W/m2
04:26 33.1 °F 29.1 °F 30.59 in Calm     85% 0.00 in 0 W/m2
04:32 33.1 °F 29.1 °F 30.59 in Calm     85% 0.00 in 0 W/m2
04:38 33.1 °F 29.1 °F 30.59 in Calm     85% 0.00 in 0 W/m2
04:44 33.0 °F 29.0 °F 30.59 in Calm     85% 0.00 in 0 W/m2
04:50 33.0 °F 29.0 °F 30.59 in Calm     85% 0.00 in 0 W/m2
04:56 33.0 °F 29.0 °F 30.59 in Calm   1.0 mph 85% 0.00 in 0 W/m2
05:02 33.0 °F 29.0 °F 30.59 in Calm     85% 0.00 in 0 W/m2
05:08 33.1 °F 29.1 °F 30.59 in Calm     85% 0.00 in 0 W/m2
05:14 33.0 °F 29.0 °F 30.59 in Calm   1.0 mph 85% 0.00 in 0 W/m2
05:20 33.0 °F 29.0 °F 30.60 in Calm     85% 0.00 in 0 W/m2
05:26 33.1 °F 29.1 °F 30.60 in Calm     85% 0.00 in 0 W/m2
05:32 33.1 °F 29.4 °F 30.61 in Calm     86% 0.00 in 0 W/m2
05:38 33.1 °F 29.4 °F 30.60 in Calm     86% 0.00 in 0 W/m2
05:44 33.1 °F 29.4 °F 30.60 in Calm     86% 0.00 in 0 W/m2
05:50 33.1 °F 29.1 °F 30.60 in Calm     85% 0.00 in 0 W/m2
05:56 33.1 °F 29.1 °F 30.59 in Calm     85% 0.00 in 0 W/m2
06:02 33.1 °F 29.1 °F 30.59 in Calm     85% 0.00 in 0 W/m2
06:08 33.1 °F 29.4 °F 30.59 in Calm     86% 0.00 in 0 W/m2
06:14 33.2 °F 29.5 °F 30.59 in Calm     86% 0.00 in 0 W/m2
06:20 33.1 °F 29.4 °F 30.59 in Calm     86% 0.00 in 0 W/m2
06:26 33.1 °F 29.4 °F 30.59 in Calm     86% 0.00 in 0 W/m2
06:32 33.1 °F 29.4 °F 30.59 in Calm     86% 0.00 in 0 W/m2
06:38 33.1 °F 29.4 °F 30.59 in Calm     86% 0.00 in 0 W/m2
06:44 33.1 °F 29.4 °F 30.59 in Calm     86% 0.00 in 0 W/m2
06:50 33.2 °F 29.5 °F 30.59 in Calm     86% 0.00 in 0 W/m2
06:56 33.2 °F 29.5 °F 30.59 in Calm     86% 0.00 in 0 W/m2
07:02 33.1 °F 29.4 °F 30.60 in Calm     86% 0.00 in 0 W/m2
07:08 33.0 °F 29.3 °F 30.59 in Calm     86% 0.00 in 9 W/m2
07:14 33.0 °F 29.3 °F 30.61 in Calm     86% 0.00 in 5 W/m2
07:20 33.0 °F 29.6 °F 30.61 in Calm     87% 0.00 in 14 W/m2
07:26 33.1 °F 29.4 °F 30.61 in Calm     86% 0.00 in 18 W/m2
07:32 33.1 °F 29.7 °F 30.61 in Calm   1.0 mph 87% 0.00 in 7 W/m2
07:38 33.0 °F 29.6 °F 30.61 in Calm   1.0 mph 87% 0.00 in 11 W/m2
07:44 33.0 °F 29.6 °F 30.62 in Calm     87% 0.00 in 14 W/m2
07:50 33.0 °F 29.6 °F 30.62 in Calm     87% 0.00 in 18 W/m2
07:56 33.1 °F 29.7 °F 30.62 in Calm     87% 0.00 in 25 W/m2
08:02 33.1 °F 29.7 °F 30.61 in Calm     87% 0.00 in 16 W/m2
08:08 33.1 °F 29.7 °F 30.61 in Calm     87% 0.00 in 16 W/m2
08:14 33.0 °F 29.6 °F 30.62 in Calm     87% 0.00 in 18 W/m2
08:20 33.1 °F 29.7 °F 30.62 in Calm     87% 0.00 in 19 W/m2
08:26 33.2 °F 29.8 °F 30.62 in Calm     87% 0.00 in 21 W/m2
08:32 33.2 °F 29.8 °F 30.62 in Calm   3.0 mph 87% 0.00 in 26 W/m2
08:38 33.3 °F 29.8 °F 30.62 in WNW 1.0 mph 3.0 mph 87% 0.00 in 26 W/m2
08:44 33.3 °F 29.8 °F 30.62 in Calm     87% 0.00 in 30 W/m2
08:50 33.4 °F 29.9 °F 30.62 in Calm   1.0 mph 87% 0.00 in 30 W/m2
08:56 33.4 °F 29.9 °F 30.63 in Calm   1.0 mph 87% 0.00 in 30 W/m2
09:02 33.5 °F 30.0 °F 30.64 in Calm     87% 0.00 in 33 W/m2
09:08 33.6 °F 30.1 °F 30.65 in Calm   1.0 mph 87% 0.00 in 39 W/m2
09:14 33.6 °F 30.1 °F 30.65 in WNW 1.0 mph 1.0 mph 87% 0.00 in 35 W/m2
09:20 33.7 °F 30.2 °F 30.65 in WNW 1.0 mph 3.0 mph 87% 0.00 in 46 W/m2
09:26 33.6 °F 30.1 °F 30.66 in WNW 1.0 mph 3.0 mph 87% 0.00 in 47 W/m2
09:32 33.7 °F 30.2 °F 30.66 in Calm   1.0 mph 87% 0.00 in 39 W/m2
09:38 33.7 °F 30.2 °F 30.66 in Calm   1.0 mph 87% 0.00 in 40 W/m2
09:44 33.8 °F 30.3 °F 30.65 in Calm     87% 0.00 in 54 W/m2
09:50 33.9 °F 30.4 °F 30.64 in Calm     87% 0.00 in 62 W/m2
09:56 34.0 °F 30.5 °F 30.64 in WNW 1.0 mph 2.0 mph 87% 0.00 in 70 W/m2
10:02 34.3 °F 30.5 °F 30.63 in South 1.0 mph 3.0 mph 86% 0.00 in 69 W/m2
10:08 34.3 °F 30.5 °F 30.63 in SSE 2.0 mph 3.0 mph 86% 0.00 in 70 W/m2
10:14 34.4 °F 30.6 °F 30.63 in SSE 1.0 mph 2.0 mph 86% 0.00 in 70 W/m2
10:20 34.4 °F 30.6 °F 30.63 in Calm     86% 0.00 in 72 W/m2
10:26 34.5 °F 30.7 °F 30.63 in Calm   1.0 mph 86% 0.00 in 79 W/m2
10:32 34.6 °F 30.8 °F 30.64 in Calm     86% 0.00 in 60 W/m2
10:38 34.8 °F 31.0 °F 30.63 in Calm     86% 0.00 in 72 W/m2
10:44 34.8 °F 30.8 °F 30.63 in Calm     85% 0.00 in 70 W/m2
10:50 34.8 °F 30.8 °F 30.63 in Calm     85% 0.00 in 60 W/m2
10:56 34.8 °F 30.8 °F 30.63 in Calm     85% 0.00 in 70 W/m2
11:02 34.9 °F 30.8 °F 30.63 in Calm     85% 0.00 in 76 W/m2
11:08 35.1 °F 31.0 °F 30.63 in SSE 1.0 mph 2.0 mph 85% 0.00 in 72 W/m2
11:14 35.0 °F 30.9 °F 30.63 in SSE 1.0 mph 3.0 mph 85% 0.00 in 58 W/m2
11:20 35.0 °F 30.9 °F 30.63 in SSE 1.0 mph 1.0 mph 85% 0.00 in 53 W/m2
11:26 34.8 °F 30.8 °F 30.64 in SSE 1.0 mph 2.0 mph 85% 0.00 in 58 W/m2
11:32 34.6 °F 30.8 °F 30.64 in SSE 1.0 mph 1.0 mph 86% 0.00 in 51 W/m2
11:38 34.3 °F 30.5 °F 30.64 in Calm   1.0 mph 86% 0.00 in 53 W/m2
11:44 34.0 °F 30.5 °F 30.64 in Calm     87% 0.00 in 40 W/m2
11:50 33.7 °F 30.2 °F 30.64 in Calm     87% 0.00 in 37 W/m2
11:56 33.5 °F 30.0 °F 30.64 in Calm   2.0 mph 87% 0.00 in 40 W/m2
12:02 33.2 °F 30.0 °F 30.64 in Calm   1.0 mph 88% 0.00 in 35 W/m2
12:08 33.1 °F 29.9 °F 30.64 in Calm   1.0 mph 88% 0.00 in 35 W/m2
12:14 32.9 °F 29.7 °F 30.64 in Calm     88% 0.00 in 39 W/m2
12:20 32.8 °F 29.6 °F 30.64 in Calm     88% 0.00 in 39 W/m2
12:26 32.8 °F 29.9 °F 30.63 in Calm     89% 0.00 in 39 W/m2
12:32 32.8 °F 29.9 °F 30.63 in Calm     89% 0.00 in 42 W/m2
12:38 32.8 °F 29.9 °F 30.63 in Calm     89% 0.00 in 47 W/m2
12:44 32.8 °F 30.2 °F 30.63 in Calm     90% 0.00 in 47 W/m2
12:50 32.8 °F 30.2 °F 30.63 in Calm     90% 0.00 in 44 W/m2
12:56 32.8 °F 30.2 °F 30.63 in Calm     90% 0.00 in 44 W/m2
13:02 32.7 °F 30.1 °F 30.63 in Calm     90% 0.00 in 44 W/m2
13:08 32.7 °F 30.1 °F 30.63 in Calm     90% 0.00 in 47 W/m2
13:14 32.8 °F 30.2 °F 30.63 in Calm     90% 0.00 in 47 W/m2
13:20 32.7 °F 30.1 °F 30.63 in Calm     90% 0.00 in 47 W/m2
13:26 32.8 °F 30.2 °F 30.64 in Calm     90% 0.00 in 54 W/m2
13:32 32.8 °F 30.2 °F 30.64 in Calm     90% 0.00 in 56 W/m2
13:38 32.8 °F 30.2 °F 30.63 in Calm     90% 0.00 in 56 W/m2
13:44 33.0 °F 30.7 °F 30.64 in Calm     91% 0.00 in 69 W/m2
13:50 33.0 °F 30.7 °F 30.64 in Calm     91% 0.05 in 72 W/m2
13:56 32.9 °F 30.6 °F 30.63 in Calm     91% 0.05 in 74 W/m2
14:02 33.0 °F 30.7 °F 30.64 in Calm     91% 0.06 in 90 W/m2
14:08 33.1 °F 30.8 °F 30.64 in Calm     91% 0.05 in 86 W/m2
14:14 33.3 °F 31.0 °F 30.64 in Calm     91% 0.00 in 102 W/m2
14:20 33.6 °F 31.3 °F 30.65 in Calm     91% 0.00 in 123 W/m2
14:26 33.7 °F 31.4 °F 30.65 in Calm     91% 0.05 in 121 W/m2
14:32 33.6 °F 31.3 °F 30.65 in Calm     91% 0.05 in 100 W/m2
14:38 33.5 °F 31.2 °F 30.65 in Calm   1.0 mph 91% 0.06 in 100 W/m2
14:44 33.4 °F 31.1 °F 30.65 in SSE 1.0 mph 4.0 mph 91% 0.09 in 86 W/m2
14:50 33.3 °F 31.0 °F 30.65 in WSW 1.0 mph 1.0 mph 91% 0.08 in 91 W/m2
14:56 33.3 °F 31.0 °F 30.65 in Calm   1.0 mph 91% 0.04 in 84 W/m2
15:02 33.3 °F 31.0 °F 30.65 in Calm     91% 0.04 in 74 W/m2
15:08 33.4 °F 31.1 °F 30.64 in Calm     91% 0.04 in 109 W/m2
15:14 33.3 °F 31.0 °F 30.64 in Calm     91% 0.05 in 102 W/m2
15:20 33.4 °F 31.1 °F 30.63 in Calm     91% 0.05 in 97 W/m2
15:26 33.4 °F 31.1 °F 30.63 in Calm   2.0 mph 91% 0.04 in 120 W/m2
15:32 33.4 °F 31.1 °F 30.63 in WSW 1.0 mph 1.0 mph 91% 0.04 in 79 W/m2
15:38 33.3 °F 31.0 °F 30.63 in WSW 1.0 mph 1.0 mph 91% 0.04 in 60 W/m2
15:44 33.5 °F 31.2 °F 30.63 in Calm     91% 0.04 in 67 W/m2
15:50 33.5 °F 31.2 °F 30.63 in Calm     91% 0.04 in 72 W/m2
15:58 33.6 °F 31.3 °F 30.63 in Calm   1.0 mph 91% 0.00 in 63 W/m2
16:06 33.5 °F 31.2 °F 30.62 in Calm   2.0 mph 91% 0.00 in 58 W/m2
16:12 33.5 °F 31.2 °F 30.61 in WSW 1.0 mph 1.0 mph 91% 0.00 in 54 W/m2
16:18 33.6 °F 31.3 °F 30.61 in WSW 1.0 mph 2.0 mph 91% 0.00 in 76 W/m2
16:24 33.6 °F 31.3 °F 30.61 in WSW 1.0 mph 1.0 mph 91% 0.00 in 72 W/m2
16:30 33.7 °F 31.4 °F 30.61 in WSW 1.0 mph 1.0 mph 91% 0.00 in 84 W/m2
16:36 33.7 °F 31.4 °F 30.61 in WSW 1.0 mph 1.0 mph 91% 0.00 in 69 W/m2
16:42 33.8 °F 31.5 °F 30.60 in WSW 1.0 mph 1.0 mph 91% 0.00 in 58 W/m2
16:48 33.7 °F 31.4 °F 30.61 in Calm   1.0 mph 91% 0.00 in 40 W/m2
16:54 33.7 °F 31.4 °F 30.60 in Calm     91% 0.00 in 56 W/m2
17:00 33.7 °F 31.4 °F 30.60 in Calm     91% 0.00 in 33 W/m2
17:06 33.7 °F 31.4 °F 30.61 in Calm   1.0 mph 91% 0.00 in 18 W/m2
17:12 33.5 °F 31.2 °F 30.61 in Calm     91% 0.00 in 12 W/m2
17:18 33.5 °F 31.2 °F 30.61 in Calm   1.0 mph 91% 0.00 in 11 W/m2
17:24 33.5 °F 31.2 °F 30.61 in Calm   1.0 mph 91% 0.00 in 9 W/m2
17:30 33.5 °F 31.2 °F 30.61 in Calm     91% 0.00 in 7 W/m2
17:36 33.5 °F 31.2 °F 30.61 in Calm   3.0 mph 91% 0.00 in 5 W/m2
17:42 33.4 °F 31.1 °F 30.62 in NNW 1.0 mph 1.0 mph 91% 0.00 in 0 W/m2
17:48 33.5 °F 31.2 °F 30.63 in NNW 1.0 mph 2.0 mph 91% 0.00 in 0 W/m2
17:54 33.5 °F 31.2 °F 30.63 in Calm   1.0 mph 91% 0.00 in 0 W/m2
18:00 33.4 °F 31.1 °F 30.64 in Calm     91% 0.00 in 0 W/m2
18:06 33.4 °F 31.1 °F 30.63 in Calm   1.0 mph 91% 0.00 in 0 W/m2
18:12 33.3 °F 31.0 °F 30.63 in NNW 1.0 mph 1.0 mph 91% 0.00 in 0 W/m2
18:18 33.3 °F 31.0 °F 30.63 in Calm   1.0 mph 91% 0.00 in 0 W/m2
18:24 33.3 °F 31.0 °F 30.63 in Calm     91% 0.00 in 0 W/m2
18:30 33.3 °F 31.0 °F 30.63 in Calm     91% 0.00 in 0 W/m2
18:36 33.3 °F 31.0 °F 30.63 in Calm     91% 0.00 in 0 W/m2
18:42 33.2 °F 30.9 °F 30.63 in Calm     91% 0.00 in 0 W/m2
18:48 33.2 °F 30.9 °F 30.64 in Calm     91% 0.00 in 0 W/m2
18:54 33.2 °F 30.9 °F 30.65 in Calm     91% 0.00 in 0 W/m2
19:00 33.2 °F 30.9 °F 30.65 in Calm     91% 0.00 in 0 W/m2
19:06 33.1 °F 30.8 °F 30.65 in Calm     91% 0.00 in 0 W/m2
19:12 33.1 °F 30.8 °F 30.66 in Calm     91% 0.00 in 0 W/m2
19:18 33.1 °F 30.8 °F 30.65 in Calm     91% 0.00 in 0 W/m2
19:24 33.0 °F 30.9 °F 30.65 in Calm     92% 0.00 in 0 W/m2
19:30 33.0 °F 30.9 °F 30.65 in Calm     92% 0.00 in 0 W/m2
19:36 32.9 °F 30.8 °F 30.65 in Calm     92% 0.00 in 0 W/m2
19:42 32.7 °F 30.4 °F 30.64 in Calm     91% 0.00 in 0 W/m2
19:48 32.5 °F 30.2 °F 30.63 in Calm     91% 0.00 in 0 W/m2
19:54 32.0 °F 29.7 °F 30.63 in Calm   1.0 mph 91% 0.00 in 0 W/m2
20:00 31.8 °F 29.7 °F 30.62 in Calm     92% 0.00 in 0 W/m2
20:06 31.6 °F 29.3 °F 30.63 in Calm     91% 0.00 in 0 W/m2
20:12 31.4 °F 29.3 °F 30.65 in Calm     92% 0.00 in 0 W/m2
20:18 31.2 °F 29.1 °F 30.65 in Calm     92% 0.00 in 0 W/m2
20:24 31.0 °F 28.7 °F 30.65 in Calm     91% 0.00 in 0 W/m2
20:30 30.8 °F 28.8 °F 30.65 in Calm     92% 0.00 in 0 W/m2
20:36 30.7 °F 28.7 °F 30.65 in Calm     92% 0.00 in 0 W/m2
20:42 30.7 °F 28.7 °F 30.65 in Calm     92% 0.00 in 0 W/m2
20:48 30.7 °F 28.7 °F 30.65 in Calm     92% 0.00 in 0 W/m2
20:54 30.8 °F 28.8 °F 30.65 in Calm     92% 0.00 in 0 W/m2
21:00 30.9 °F 28.9 °F 30.65 in Calm     92% 0.00 in 0 W/m2
21:06 31.0 °F 28.9 °F 30.65 in Calm     92% 0.00 in 0 W/m2
21:12 31.0 °F 28.9 °F 30.65 in Calm     92% 0.00 in 0 W/m2
21:18 31.2 °F 29.1 °F 30.65 in Calm     92% 0.00 in 0 W/m2
21:24 31.4 °F 29.3 °F 30.65 in Calm     92% 0.00 in 0 W/m2
21:30 31.5 °F 29.4 °F 30.65 in Calm     92% 0.00 in 0 W/m2
21:36 31.7 °F 29.6 °F 30.65 in Calm     92% 0.00 in 0 W/m2
21:42 31.8 °F 29.7 °F 30.65 in Calm     92% 0.00 in 0 W/m2
21:48 31.8 °F 29.7 °F 30.65 in Calm     92% 0.00 in 0 W/m2
21:54 31.8 °F 29.7 °F 30.65 in Calm     92% 0.00 in 0 W/m2
22:00 31.8 °F 29.7 °F 30.65 in Calm     92% 0.00 in 0 W/m2
22:06 31.8 °F 29.7 °F 30.65 in Calm     92% 0.00 in 0 W/m2
22:12 31.9 °F 29.8 °F 30.65 in Calm     92% 0.00 in 0 W/m2
22:18 32.1 °F 30.0 °F 30.65 in Calm     92% 0.00 in 0 W/m2
22:24 32.1 °F 30.0 °F 30.65 in Calm     92% 0.00 in 0 W/m2
22:30 32.2 °F 30.1 °F 30.65 in Calm     92% 0.00 in 0 W/m2
22:36 32.1 °F 30.0 °F 30.65 in Calm     92% 0.00 in 0 W/m2
22:42 32.0 °F 29.9 °F 30.65 in Calm     92% 0.00 in 0 W/m2
22:48 32.0 °F 29.9 °F 30.65 in Calm     92% 0.00 in 0 W/m2
22:54 32.0 °F 30.2 °F 30.65 in Calm     93% 0.00 in 0 W/m2
23:00 32.1 °F 30.3 °F 30.65 in Calm     93% 0.00 in 0 W/m2
23:06 32.0 °F 30.2 °F 30.64 in Calm     93% 0.00 in 0 W/m2
23:12 31.9 °F 30.1 °F 30.63 in Calm     93% 0.00 in 0 W/m2
23:18 31.9 °F 30.1 °F 30.63 in Calm     93% 0.00 in 0 W/m2
23:24 31.9 °F 30.1 °F 30.63 in Calm     93% 0.00 in 0 W/m2
23:30 31.9 °F 30.1 °F 30.63 in Calm     93% 0.00 in 0 W/m2
23:36 31.9 °F 30.1 °F 30.63 in Calm     93% 0.00 in 0 W/m2
23:42 31.9 °F 30.1 °F 30.63 in Calm     93% 0.00 in 0 W/m2
23:48 32.0 °F 30.2 °F 30.63 in Calm     93% 0.00 in 0 W/m2
23:54 32.0 °F 30.2 °F 30.64 in Calm     93% 0.00 in 0 W/m2
Country Meadow, Clay, NY, USA
Compliments of Weather Underground - 2 mb